When you browse on this site, cookies collect data to enhance your experience and personalize the content and advertising you see.
Visit our Privacy Policy to learn more. By continuing to use the site, you agree to this use of cookies and data.
  • In Hungary
  • List of Countries
  • For 7 days
  • Water Temperature
  • Satellite Maps
  • Weather Map
  • News
  • Weather Widgets
  • user-avatar
    Login

    Hourly Weather Pingzhuang

    Today, 22 April, Monday

    Time Temperature Precipitation Wind Pressure Humidity
    00:00 +12°C° 0 mm 4 mps 712 mmHg 32%
    01:00 +12°C° 0 mm 4 mps 712 mmHg 32%
    02:00 +11°C° 0 mm 3 mps 712 mmHg 32%
    03:00 +11°C° 0 mm 3 mps 712 mmHg 32%
    04:00 +11°C° 0 mm 3 mps 711 mmHg 32%
    05:00 +11°C° 0 mm 3 mps 711 mmHg 31%
    06:00 +12°C° 0 mm 3 mps 711 mmHg 32%
    07:00 +14°C° 0 mm 3 mps 711 mmHg 32%
    08:00 +14°C° 0 mm 3 mps 711 mmHg 34%
    09:00 +19°C° 0 mm 4 mps 711 mmHg 31%
    10:00 +22°C° 0 mm 5 mps 711 mmHg 27%
    11:00 +27°C° 0 mm 6 mps 711 mmHg 24%
    12:00 +28°C° 0 mm 7 mps 710 mmHg 22%
    13:00 +29°C° 0 mm 8 mps 710 mmHg 20%
    14:00 +32°C° 0 mm 8 mps 710 mmHg 18%
    15:00 +31°C° 0 mm 8 mps 709 mmHg 20%
    16:00 +29°C° 0 mm 8 mps 709 mmHg 21%
    17:00 +29°C° 0 mm 8 mps 709 mmHg 23%
    18:00 +27°C° 0 mm 7 mps 709 mmHg 29%
    19:00 +23°C° 0 mm 7 mps 709 mmHg 36%
    20:00 +21°C° 0 mm 7 mps 709 mmHg 43%
    21:00 +21°C° 0 mm 6 mps 709 mmHg 47%
    22:00 +20°C° 0 mm 6 mps 709 mmHg 51%
    23:00 +19°C° 0 mm 5 mps 709 mmHg 55%

    Tomorrow, 23 April, Tuesday

    Time Temperature Precipitation Wind Pressure Humidity
    00:00 +17°C° 0 mm 5 mps 709 mmHg 60%
    01:00 +18°C° 0 mm 4 mps 710 mmHg 64%
    02:00 +17°C° 0 mm 3 mps 710 mmHg 68%
    03:00 +17°C° 0 mm 2 mps 710 mmHg 72%
    04:00 +16°C° 0 mm 2 mps 710 mmHg 76%
    05:00 +15°C° 0 mm 1 mps 710 mmHg 80%
    06:00 +16°C° 0 mm 2 mps 711 mmHg 69%
    07:00 +17°C° 0 mm 4 mps 712 mmHg 58%
    08:00 +17°C° 0 mm 5 mps 713 mmHg 47%
    09:00 +19°C° 0 mm 6 mps 713 mmHg 40%
    10:00 +20°C° 0 mm 6 mps 713 mmHg 34%
    11:00 +20°C° 0 mm 6 mps 713 mmHg 28%
    12:00 +21°C° 0 mm 6 mps 713 mmHg 27%
    13:00 +22°C° 0 mm 5 mps 713 mmHg 25%
    14:00 +22°C° 0 mm 5 mps 713 mmHg 23%
    15:00 +22°C° 0 mm 4 mps 713 mmHg 23%
    16:00 +22°C° 0 mm 4 mps 712 mmHg 23%
    17:00 +23°C° 0 mm 4 mps 712 mmHg 23%
    18:00 +21°C° 0 mm 4 mps 712 mmHg 26%
    19:00 +20°C° 0 mm 4 mps 713 mmHg 29%
    20:00 +19°C° 0 mm 4 mps 713 mmHg 32%
    21:00 +17°C° 0.2 mm 5 mps 713 mmHg 32%
    22:00 +16°C° 0.2 mm 6 mps 714 mmHg 33%
    23:00 +15°C° 0.2 mm 7 mps 714 mmHg 33%

    Day after tomorrow, 24 April, Wednesday

    Time Temperature Precipitation Wind Pressure Humidity
    00:00 +14°C° 0.3 mm 7 mps 715 mmHg 36%
    01:00 +11°C° 0.3 mm 7 mps 715 mmHg 39%
    02:00 +10°C° 0.3 mm 7 mps 716 mmHg 42%
    03:00 +9°C° 0 mm 8 mps 716 mmHg 46%
    04:00 +7°C° 0 mm 8 mps 716 mmHg 50%
    05:00 +6°C° 0 mm 8 mps 717 mmHg 55%
    06:00 +5°C° 0.3 mm 8 mps 717 mmHg 60%
    07:00 +5°C° 0.3 mm 7 mps 718 mmHg 66%
    08:00 +4°C° 0.3 mm 7 mps 718 mmHg 72%
    09:00 +4°C° 0.3 mm 6 mps 718 mmHg 69%
    10:00 +4°C° 0.3 mm 6 mps 718 mmHg 66%
    11:00 +4°C° 0.3 mm 6 mps 718 mmHg 63%
    12:00 +5°C° 1.7 mm 5 mps 718 mmHg 67%
    13:00 +4°C° 1.7 mm 4 mps 718 mmHg 70%
    14:00 +3°C° 1.7 mm 3 mps 718 mmHg 74%
    15:00 +4°C° 0.1 mm 3 mps 717 mmHg 68%
    16:00 +6°C° 0.1 mm 2 mps 717 mmHg 62%
    17:00 +7°C° 0.1 mm 2 mps 717 mmHg 56%
    18:00 +6°C° 0 mm 2 mps 717 mmHg 56%
    19:00 +6°C° 0 mm 2 mps 717 mmHg 56%
    20:00 +6°C° 0 mm 2 mps 717 mmHg 56%
    21:00 +6°C° 0 mm 2 mps 717 mmHg 55%
    22:00 +6°C° 0 mm 2 mps 717 mmHg 54%
    23:00 +7°C° 0 mm 1 mps 718 mmHg 53%

    25 April, Thursday

    Time Temperature Precipitation Wind Pressure Humidity
    00:00 +7°C° 0 mm 1 mps 717 mmHg 52%
    01:00 +7°C° 0 mm 1 mps 717 mmHg 51%
    02:00 +7°C° 0 mm 1 mps 717 mmHg 50%
    03:00 +6°C° 0 mm 2 mps 717 mmHg 50%
    04:00 +5°C° 0 mm 2 mps 717 mmHg 50%
    05:00 +5°C° 0 mm 2 mps 717 mmHg 50%
    06:00 +5°C° 0 mm 3 mps 717 mmHg 45%
    07:00 +7°C° 0 mm 4 mps 717 mmHg 39%
    08:00 +8°C° 0 mm 5 mps 718 mmHg 34%
    09:00 +9°C° 0 mm 5 mps 718 mmHg 32%
    10:00 +10°C° 0 mm 6 mps 718 mmHg 30%
    11:00 +10°C° 0 mm 6 mps 718 mmHg 28%
    12:00 +11°C° 0 mm 6 mps 717 mmHg 27%
    13:00 +11°C° 0 mm 6 mps 717 mmHg 26%
    14:00 +13°C° 0 mm 5 mps 717 mmHg 25%
    15:00 +13°C° 0 mm 5 mps 717 mmHg 26%
    16:00 +12°C° 0 mm 5 mps 717 mmHg 26%
    17:00 +12°C° 0 mm 5 mps 716 mmHg 26%
    18:00 +11°C° 0 mm 4 mps 717 mmHg 29%
    19:00 +10°C° 0 mm 4 mps 717 mmHg 32%
    20:00 +9°C° 0 mm 3 mps 717 mmHg 36%
    21:00 +9°C° 0 mm 2 mps 718 mmHg 37%
    22:00 +8°C° 0 mm 2 mps 718 mmHg 39%
    23:00 +8°C° 0 mm 1 mps 718 mmHg 40%

    26 April, Friday

    Time Temperature Precipitation Wind Pressure Humidity
    00:00 +8°C° 0 mm 1 mps 718 mmHg 41%
    01:00 +7°C° 0 mm 0 mps 718 mmHg 42%
    02:00 +6°C° 0 mm 0 mps 718 mmHg 43%
    03:00 +6°C° 0 mm 0 mps 718 mmHg 43%
    04:00 +7°C° 0 mm 1 mps 718 mmHg 43%
    05:00 +6°C° 0 mm 1 mps 718 mmHg 43%
    06:00 +8°C° 0 mm 1 mps 719 mmHg 39%
    07:00 +9°C° 0 mm 1 mps 719 mmHg 35%
    08:00 +10°C° 0 mm 1 mps 720 mmHg 31%
    09:00 +11°C° 0 mm 1 mps 720 mmHg 29%
    10:00 +12°C° 0 mm 2 mps 720 mmHg 27%
    11:00 +13°C° 0 mm 2 mps 720 mmHg 26%
    12:00 +14°C° 0 mm 1 mps 719 mmHg 24%
    13:00 +15°C° 0 mm 1 mps 719 mmHg 23%
    14:00 +15°C° 0 mm 1 mps 719 mmHg 22%
    15:00 +15°C° 0 mm 1 mps 718 mmHg 22%
    16:00 +15°C° 0 mm 1 mps 718 mmHg 22%
    17:00 +15°C° 0 mm 1 mps 718 mmHg 22%
    18:00 +15°C° 0 mm 1 mps 718 mmHg 24%
    19:00 +14°C° 0 mm 1 mps 719 mmHg 27%
    20:00 +13°C° 0 mm 1 mps 719 mmHg 29%
    21:00 +13°C° 0 mm 1 mps 719 mmHg 31%
    22:00 +13°C° 0 mm 2 mps 719 mmHg 33%
    23:00 +12°C° 0 mm 2 mps 719 mmHg 34%

    27 April, Saturday

    Time Temperature Precipitation Wind Pressure Humidity
    00:00 +12°C° 0 mm 2 mps 719 mmHg 38%
    01:00 +10°C° 0 mm 2 mps 718 mmHg 42%
    02:00 +10°C° 0 mm 2 mps 718 mmHg 46%
    03:00 +9°C° 0 mm 2 mps 718 mmHg 49%
    04:00 +9°C° 0 mm 2 mps 718 mmHg 52%
    05:00 +8°C° 0 mm 2 mps 718 mmHg 55%
    06:00 +10°C° 0 mm 2 mps 718 mmHg 51%
    07:00 +11°C° 0 mm 3 mps 718 mmHg 47%
    08:00 +12°C° 0 mm 3 mps 718 mmHg 44%
    09:00 +14°C° 0 mm 3 mps 718 mmHg 41%
    10:00 +15°C° 0 mm 4 mps 718 mmHg 38%
    11:00 +18°C° 0 mm 4 mps 717 mmHg 34%
    12:00 +19°C° 0 mm 5 mps 717 mmHg 33%
    13:00 +20°C° 0 mm 5 mps 716 mmHg 32%
    14:00 +20°C° 0 mm 6 mps 715 mmHg 31%
    15:00 +20°C° 0 mm 6 mps 715 mmHg 32%
    16:00 +20°C° 0 mm 7 mps 715 mmHg 32%
    17:00 +18°C° 0 mm 7 mps 715 mmHg 32%
    18:00 +17°C° 0 mm 7 mps 715 mmHg 34%
    19:00 +15°C° 0 mm 6 mps 715 mmHg 35%
    20:00 +13°C° 0 mm 6 mps 715 mmHg 36%
    21:00 +13°C° 0 mm 5 mps 715 mmHg 37%
    22:00 +12°C° 0 mm 5 mps 715 mmHg 39%
    23:00 +10°C° 0 mm 5 mps 715 mmHg 40%
    Show more